TimeEDT,TemperatureF,Dew PointF,Humidity,Sea Level PressureIn,VisibilityMPH,Wind Direction,Wind SpeedMPH,Gust SpeedMPH,PrecipitationIn,Events,Conditions,WindDirDegrees,DateUTC
12:56 AM,66.0,63.0,90,29.91,9.0,North,4.6,-,N/A,,Scattered Clouds,360,2013-07-02 04:56:00
1:11 AM,66.2,64.4,94,29.91,8.0,Calm,Calm,-,N/A,,Mostly Cloudy,0,2013-07-02 05:11:00
1:45 AM,66.2,62.6,88,29.91,7.0,North,4.6,-,N/A,,Scattered Clouds,360,2013-07-02 05:45:00
1:56 AM,66.0,64.0,93,29.90,7.0,NNE,3.5,-,N/A,,Scattered Clouds,20,2013-07-02 05:56:00
2:56 AM,64.9,63.0,93,29.89,6.0,ESE,3.5,-,N/A,,Clear,110,2013-07-02 06:56:00
3:56 AM,64.9,63.0,93,29.89,8.0,ESE,5.8,-,N/A,,Scattered Clouds,120,2013-07-02 07:56:00
4:03 AM,64.4,62.6,94,29.91,1.5,ESE,6.9,-,N/A,,Mostly Cloudy,110,2013-07-02 08:03:00
4:13 AM,64.4,62.6,94,29.91,1.5,ESE,5.8,-,N/A,,Mostly Cloudy,120,2013-07-02 08:13:00
4:53 AM,64.4,62.6,94,29.91,2.5,Calm,Calm,-,N/A,,Overcast,0,2013-07-02 08:53:00
4:56 AM,64.0,63.0,96,29.90,2.5,Calm,Calm,-,N/A,,Overcast,0,2013-07-02 08:56:00
5:06 AM,64.4,62.6,94,29.91,8.0,ENE,3.5,-,N/A,,Mostly Cloudy,60,2013-07-02 09:06:00
5:18 AM,64.4,62.6,94,29.91,8.0,Calm,Calm,-,N/A,,Mostly Cloudy,0,2013-07-02 09:18:00
5:56 AM,64.9,63.0,93,29.91,10.0,Calm,Calm,-,N/A,,Overcast,0,2013-07-02 09:56:00
6:56 AM,64.9,63.0,93,29.93,8.0,ENE,4.6,-,N/A,,Overcast,60,2013-07-02 10:56:00
7:56 AM,64.9,63.0,93,29.94,10.0,ESE,4.6,-,N/A,,Overcast,120,2013-07-02 11:56:00
8:56 AM,66.9,63.0,87,29.96,10.0,East,3.5,-,N/A,,Overcast,100,2013-07-02 12:56:00
9:56 AM,69.1,64.9,87,29.96,10.0,SE,3.5,-,N/A,,Overcast,140,2013-07-02 13:56:00
10:35 AM,71.6,64.4,78,29.97,10.0,SE,5.8,-,N/A,,Mostly Cloudy,140,2013-07-02 14:35:00
10:56 AM,72.0,66.0,81,29.97,10.0,SE,6.9,-,N/A,,Mostly Cloudy,130,2013-07-02 14:56:00
11:20 AM,73.4,66.2,78,29.98,10.0,SSE,4.6,-,N/A,,Scattered Clouds,150,2013-07-02 15:20:00
11:56 AM,73.9,66.0,76,29.97,10.0,Calm,Calm,-,N/A,,Scattered Clouds,0,2013-07-02 15:56:00
12:18 PM,75.2,64.4,69,29.98,10.0,SE,4.6,-,N/A,,Mostly Cloudy,130,2013-07-02 16:18:00
12:44 PM,78.8,66.2,65,29.98,10.0,SSE,6.9,-,N/A,,Scattered Clouds,150,2013-07-02 16:44:00
12:56 PM,77.0,66.0,69,29.96,10.0,East,3.5,-,N/A,,Scattered Clouds,100,2013-07-02 16:56:00
1:39 PM,78.8,66.2,65,29.97,10.0,SE,12.7,20.7,N/A,,Mostly Cloudy,140,2013-07-02 17:39:00
1:56 PM,75.0,66.0,73,29.96,10.0,WSW,4.6,19.6,N/A,,Mostly Cloudy,250,2013-07-02 17:56:00
2:08 PM,75.2,68.0,78,29.97,10.0,West,5.8,-,N/A,,Mostly Cloudy,280,2013-07-02 18:08:00
2:56 PM,79.0,64.9,62,29.96,10.0,SW,4.6,-,0.00,,Scattered Clouds,220,2013-07-02 18:56:00
3:56 PM,82.0,64.9,56,29.94,10.0,South,6.9,-,N/A,,Scattered Clouds,180,2013-07-02 19:56:00
4:56 PM,82.0,64.0,54,29.94,10.0,South,9.2,-,N/A,,Mostly Cloudy,190,2013-07-02 20:56:00
5:56 PM,81.0,63.0,54,29.94,10.0,SSW,12.7,19.6,N/A,,Mostly Cloudy,200,2013-07-02 21:56:00
6:56 PM,81.0,62.1,52,29.95,10.0,South,12.7,-,N/A,,Scattered Clouds,190,2013-07-02 22:56:00
7:56 PM,80.1,62.1,54,29.96,10.0,SW,11.5,-,N/A,,Scattered Clouds,230,2013-07-02 23:56:00
8:56 PM,78.1,62.1,58,29.97,10.0,SSW,5.8,-,N/A,,Scattered Clouds,210,2013-07-03 00:56:00
9:56 PM,75.9,63.0,64,29.99,10.0,SSW,5.8,-,N/A,,Scattered Clouds,200,2013-07-03 01:56:00
10:56 PM,73.9,63.0,68,30.01,10.0,SSW,5.8,-,N/A,,Partly Cloudy,210,2013-07-03 02:56:00
11:56 PM,73.9,63.0,68,30.01,10.0,SSW,4.6,-,N/A,,Partly Cloudy,200,2013-07-03 03:56:00